This demonstration page uses our WeatherBlox Daily Observations layout. Learn more.

Left ArrowRight Arrow

Hourly Observations for June 8, 2017

Temp ( °F °C ) Dew Point ( °F °C ) Humidity (%) Winds ( mph kmh ) Pressure ( in mb ) Visibility ( mi km ) Precip ( " mm )
12:59 am 00:59 Mostly Cloudy 61 16.1 51 10.6 70 70 NE 12 19 30.01 1016 10 16 0.00 0.00
1:59 am 01:59 Mostly Cloudy 61 16.1 51 10.6 70 70 NE 15 24 29.99 1016 10 16 0.00 0.00
2:59 am 02:59 Mostly Cloudy 61 16.1 50 10 67 67 NE 14 22 29.98 1015 10 16 0.00 0.00
3:59 am 03:59 Mostly Cloudy 61 16.1 50 10 67 67 NE 12 19 29.96 1015 10 16 0.00 0.00
4:59 am 04:59 Mostly Cloudy 62 16.7 51 10.6 67 67 ENE 13 20 29.95 1014 10 16 0.00 0.00
5:59 am 05:59 Cloudy 62 16.7 51 10.6 67 67 NE 10 17 29.95 1014 10 16 0.00 0.00
6:59 am 06:59 Cloudy 62 16.7 52 11.1 70 70 NE 12 19 29.95 1014 10 16 0.00 0.00
7:42 am 07:42 Cloudy 63 17.2 53 11.7 70 70 NE 12 19 29.94 1014 10 16 0.00 0.00
7:49 am 07:49 Cloudy 63 17.2 53 11.7 70 70 NE 10 17 29.94 1014 10 16 0.00 0.00
7:59 am 07:59 Cloudy 63 17.2 53 11.7 70 70 NE 12 19 29.95 1014 10 16 0.00 0.00
8:59 am 08:59 Cloudy 62 16.7 55 12.8 78 78 NNE 14 22 29.96 1015 10 16 0.00 0.00
9:59 am 09:59 Cloudy 62 16.7 54 12.2 75 75 NE 15 24 29.96 1015 10 16 0.00 0.00
10:59 am 10:59 Cloudy 63 17.2 54 12.2 73 73 NE 15 24 29.95 1014 10 16 0.00 0.00
11:59 am 11:59 Cloudy 64 17.8 54 12.2 70 70 NNE 16 26 29.93 1014 10 16 0.00 0.00
12:59 pm 12:59 Cloudy 64 17.8 55 12.8 73 73 NNE 14 22 29.91 1013 10 16 0.00 0.00
1:59 pm 13:59 Cloudy 65 18.3 55 12.8 70 70 NNE 16 26 29.91 1013 10 16 0.00 0.00
2:59 pm 14:59 Mostly Cloudy 69 20.6 56 13.3 63 63 NNE 14 22 29.89 1012 10 16 0.00 0.00
3:59 pm 15:59 Mostly Cloudy 70 21.1 55 12.8 59 59 N 14 22 29.87 1011 10 16 0.00 0.00
4:59 pm 16:59 Partly Cloudy 69 20.6 53 11.7 57 57 N 10 17 29.85 1011 10 16 0.00 0.00
5:59 pm 17:59 Partly Cloudy 68 20 53 11.7 59 59 N 9 15 29.84 1011 10 16 0.00 0.00
6:59 pm 18:59 Mostly Sunny 67 19.4 51 10.6 57 57 N 12 19 29.84 1010 10 16 0.00 0.00
7:59 pm 19:59 Partly Cloudy 65 18.3 51 10.6 61 61 N 9 15 29.84 1011 10 16 0.00 0.00
8:59 pm 20:59 Mostly Clear 64 17.8 51 10.6 63 63 N 9 15 29.85 1011 10 16 0.00 0.00
9:59 pm 21:59 Clear 63 17.2 52 11.1 68 68 N 9 15 29.85 1011 10 16 0.00 0.00
10:59 pm 22:59 Clear 62 16.7 52 11.1 70 70 NNW 6 9 29.85 1011 10 16 0.00 0.00
11:59 pm 23:59 Clear 58 14.4 52 11.1 81 81 Calm 29.85 1011 10 16 0.00 0.00

Powered by AerisWeather